FW2897 Weather Reports


Display with metric or nautical units.
time (UTC)temp
F
wind
direction
speed
MPH
gust
MPH
rain 1hr
in
rain 24hr
in
rain mn
in
humidity
%
barometer
mb
20260507151808 59 200 2.0 8.0 0.00 0.17 0.11 58 1011.8
20260507151245 59 323 2.0 7.0 0.00 0.17 0.11 57 1012.0
20260507150725 58 245 2.0 8.0 0.00 0.18 0.11 60 1011.9
20260507150216 57 334 1.0 8.0 0.00 0.18 0.11 61 1012.0
20260507145944 58 13 1.0 4.0 0.00 0.18 0.11 62 1012.0
20260507145214 57 253 1.0 4.0 0.00 0.18 0.11 63 1012.1
20260507144713 57 265 0.0 3.0 0.00 0.18 0.11 65 1012.3
20260507144220 57 222 1.0 4.0 0.00 0.18 0.11 67 1012.1
20260507143648 57 304 1.0 6.0 0.00 0.18 0.11 65 1012.3
20260507143130 56 281 2.0 8.0 0.00 0.18 0.11 66 1012.3
20260507142608 56 345 2.0 8.0 0.00 0.18 0.11 66 1012.3
20260507142043 56 214 1.0 8.0 0.00 0.18 0.11 67 1012.3
20260507141533 56 314 1.0 8.0 0.00 0.18 0.11 67 1012.3
20260507141012 56 13 1.0 7.0 0.00 0.18 0.11 69 1012.3
20260507140514 56 300 0.0 3.0 0.00 0.18 0.11 70 1012.4
20260507135947 56 18 0.0 3.0 0.00 0.18 0.11 72 1012.5
20260507135915 55 224 0.0 3.0 0.00 0.18 0.11 71 1012.5
20260507134921 55 271 1.0 6.0 0.00 0.18 0.11 74 1012.5
20260507134632 54 335 1.0 6.0 0.00 0.18 0.11 72 1012.6
20260507133834 54 303 1.0 7.0 0.00 0.18 0.11 74 1012.6
20260507133557 54 295 1.0 7.0 0.00 0.18 0.11 73 1012.7
20260507133033 54 310 0.0 5.0 0.00 0.18 0.11 76 1012.6
20260507132309 54 296 1.0 5.0 0.00 0.18 0.11 75 1012.5
20260507131748 54 304 1.0 5.0 0.00 0.18 0.11 76 1012.5
20260507131215 53 290 1.0 5.0 0.00 0.18 0.11 78 1012.5
20260507130712 53 259 0.0 3.0 0.00 0.18 0.11 81 1012.5
20260507130220 53 167 1.0 4.0 0.00 0.18 0.11 84 1012.5
20260507125640 53 255 1.0 5.0 0.00 0.18 0.11 84 1012.5
20260507125115 53 267 0.0 3.0 0.00 0.18 0.11 84 1012.5
20260507124617 53 303 1.0 3.0 0.00 0.18 0.11 86 1012.6
20260507124100 53 297 0.0 3.0 0.00 0.18 0.11 86 1012.6
20260507123604 53 9 0.0 3.0 0.00 0.18 0.11 87 1012.4
20260507123056 53 321 0.0 3.0 0.00 0.18 0.11 87 1012.5
20260507122554 53 295 0.0 3.0 0.00 0.18 0.11 87 1012.5
20260507122050 53 281 0.0 1.0 0.00 0.18 0.11 88 1012.5
20260507121550 53 262 0.0 2.0 0.00 0.18 0.11 88 1012.5
20260507121248 52 278 0.0 2.0 0.00 0.18 0.11 88 1012.4
20260507120519 52 311 0.0 0.0 0.00 0.18 0.11 89 1012.3
20260507115952 52 311 0.0 1.0 0.00 0.18 0.11 89 1012.3
20260507115448 52 321 0.0 1.0 0.00 0.18 0.11 89 1012.4
20260507115152 52 322 0.0 2.0 0.00 0.18 0.11 89 1012.2
20260507114420 52 322 0.0 2.0 0.00 0.18 0.11 89 1012.3
20260507114144 52 295 0.0 3.0 0.00 0.18 0.11 89 1012.1
20260507113349 52 277 0.0 3.0 0.00 0.18 0.11 89 1012.3
20260507113338 52 290 0.0 1.0 0.00 0.18 0.11 89 1012.1
20260507112343 52 289 0.0 1.0 0.00 0.18 0.11 89 1012.2
20260507111838 52 289 0.0 0.0 0.00 0.18 0.11 90 1012.2
20260507111333 52 289 0.0 0.0 0.00 0.18 0.11 90 1012.2
20260507111056 52 289 0.0 0.0 0.00 0.18 0.11 90 1012.1
20260507110303 51 289 0.0 0.0 0.00 0.18 0.11 90 1011.8
20260507105759 51 289 0.0 0.0 0.00 0.18 0.11 90 1011.9
20260507105738 51 289 0.0 0.0 0.00 0.18 0.11 90 1011.8
20260507104752 51 256 0.0 0.0 0.00 0.18 0.11 90 1011.8
20260507104222 51 256 0.0 0.0 0.00 0.18 0.11 90 1011.8
20260507103720 51 256 0.0 0.0 0.00 0.18 0.11 90 1011.6
20260507103217 51 256 0.0 0.0 0.00 0.18 0.11 89 1011.5
20260507102714 51 256 0.0 0.0 0.00 0.18 0.11 89 1011.5
20260507102150 51 256 0.0 0.0 0.00 0.18 0.11 89 1011.6
20260507101851 51 256 0.0 0.0 0.00 0.18 0.11 89 1011.5
20260507101352 51 256 0.0 0.0 0.00 0.18 0.11 89 1011.3
20260507100844 51 256 0.0 0.0 0.00 0.18 0.11 89 1011.1
20260507095825 51 256 0.0 0.0 0.00 0.18 0.11 89 1011.3
20260507095018 51 256 0.0 0.0 0.00 0.18 0.11 89 1011.3
20260507094516 50 256 0.0 0.0 0.01 0.18 0.11 89 1011.2
20260507093951 50 256 0.0 0.0 0.01 0.18 0.11 89 1011.3
20260507093442 50 256 0.0 0.0 0.01 0.18 0.11 89 1011.2
20260507092943 50 256 0.0 0.0 0.01 0.18 0.11 89 1011.1
20260507092701 51 256 0.0 0.0 0.01 0.18 0.11 89 1011.1
20260507091936 51 256 0.0 0.0 0.01 0.18 0.11 88 1011.2
20260507091631 51 256 0.0 0.0 0.01 0.18 0.11 88 1011.2
20260507091142 51 256 0.0 0.0 0.01 0.18 0.11 88 1011.1
20260507090401 51 256 0.0 1.0 0.01 0.18 0.11 88 1010.8
20260507085858 51 258 0.0 1.0 0.01 0.18 0.11 88 1010.5
20260507085626 51 258 0.0 1.0 0.01 0.18 0.11 88 1010.5
20260507084837 51 318 0.0 1.0 0.01 0.18 0.11 88 1010.5
20260507084300 51 319 0.0 2.0 0.00 0.17 0.10 87 1010.7
20260507083757 51 165 0.0 2.0 0.00 0.17 0.10 87 1010.7
20260507083231 51 245 0.0 2.0 0.00 0.17 0.10 87 1010.6
20260507082730 51 223 0.0 2.0 0.00 0.17 0.10 88 1010.6
20260507082202 51 243 0.0 2.0 0.00 0.17 0.10 88 1010.4
20260507081703 51 217 0.0 2.0 0.00 0.17 0.10 88 1010.4
20260507081140 52 223 0.0 2.0 0.00 0.17 0.10 88 1010.5
20260507080641 52 134 0.0 2.0 0.00 0.17 0.10 89 1010.5
20260507080119 52 245 0.0 2.0 0.00 0.17 0.10 89 1010.5
20260507075821 52 221 0.0 2.0 0.00 0.17 0.10 88 1010.4
20260507075051 52 221 0.0 4.0 0.00 0.17 0.10 88 1010.6
20260507074554 52 261 0.0 4.0 0.00 0.17 0.10 88 1010.8
20260507074038 52 299 0.0 2.0 0.00 0.17 0.10 88 1010.6
20260507073801 52 300 0.0 2.0 0.00 0.17 0.10 88 1010.4
20260507073011 52 244 0.0 3.0 0.00 0.17 0.10 88 1010.6
20260507072449 52 216 0.0 3.0 0.00 0.17 0.10 88 1010.6
20260507071923 52 280 0.0 2.0 0.00 0.17 0.10 88 1010.6
20260507071417 52 251 0.0 2.0 0.00 0.17 0.10 88 1010.7
20260507070857 52 254 0.0 2.0 0.00 0.17 0.10 88 1010.9
20260507070355 52 5 0.0 3.0 0.00 0.17 0.10 88 1011.0
20260507065851 52 322 0.0 3.0 0.00 0.17 0.10 88 1010.8
20260507065350 53 8 1.0 7.0 0.00 0.17 0.10 87 1011.0
20260507064848 53 285 1.0 7.0 0.01 0.17 0.10 87 1011.2
20260507064347 53 77 1.0 6.0 0.01 0.17 0.10 87 1011.2
20260507063828 53 323 0.0 6.0 0.01 0.17 0.10 87 1010.9
20260507063554 53 233 0.0 4.0 0.01 0.17 0.10 88 1010.4
20260507062805 53 345 1.0 4.0 0.01 0.17 0.10 87 1010.4
20260507062244 54 303 0.0 4.0 0.10 0.17 0.10 87 1010.3
20260507061720 55 238 0.0 1.0 0.10 0.17 0.10 88 1010.0
20260507061153 55 354 1.0 5.0 0.10 0.17 0.10 87 1010.4
20260507060628 55 309 2.0 7.0 0.10 0.17 0.10 87 1010.4
20260507060118 55 237 2.0 8.0 0.10 0.17 0.10 87 1010.3
20260507055606 56 112 2.0 8.0 0.10 0.17 0.10 87 1010.5
20260507055305 56 288 1.0 6.0 0.09 0.16 0.09 87 1010.7
20260507054544 57 296 1.0 6.0 0.09 0.16 0.09 87 1010.3
20260507054037 57 319 1.0 5.0 0.09 0.16 0.09 86 1010.1
20260507053812 58 295 1.0 7.0 0.09 0.16 0.09 86 1010.0
20260507053233 58 331 2.0 7.0 0.09 0.16 0.09 85 1010.7
20260507052509 59 217 1.0 4.0 0.05 0.12 0.07 84 1009.9
20260507051942 59 280 0.0 5.0 0.00 0.07 0.00 84 1010.3
20260507051418 59 288 1.0 10.0 0.00 0.07 0.00 83 1009.7
20260507050848 60 291 1.0 10.0 0.00 0.07 0.00 82 1009.7
20260507050320 60 323 1.0 3.0 0.00 0.07 0.00 82 1009.9
20260507045819 60 274 1.0 4.0 0.00 0.07 0.00 82 1009.8
20260507045519 60 64 1.0 8.0 0.00 0.07 0.00 81 1009.5
20260507044748 60 289 2.0 8.0 0.00 0.07 0.00 81 1009.5
20260507044220 60 296 2.0 10.0 0.00 0.07 0.00 80 1009.5
20260507043718 61 286 1.0 10.0 0.00 0.07 0.00 80 1009.3
20260507043414 61 285 1.0 6.0 0.00 0.07 0.00 81 1009.1
20260507042649 61 245 1.0 6.0 0.00 0.07 0.00 81 1009.1
20260507042144 62 274 0.0 5.0 0.00 0.07 0.00 83 1009.3
20260507041643 62 311 1.0 5.0 0.00 0.07 0.00 82 1009.3
20260507041344 62 287 1.0 5.0 0.00 0.07 0.00 82 1009.2
20260507040612 62 301 2.0 8.0 0.00 0.07 0.00 82 1009.1
20260507040100 62 340 2.0 8.0 0.00 0.07 0.00 81 1009.1
20260507035544 62 311 2.0 9.0 0.00 0.07 0.07 81 1009.1
20260507035039 62 288 3.0 9.0 0.00 0.07 0.07 80 1009.3
20260507034532 63 303 2.0 7.0 0.00 0.07 0.07 80 1009.3
20260507034031 63 305 2.0 7.0 0.00 0.07 0.07 79 1009.2
20260507033503 63 309 1.0 6.0 0.00 0.07 0.07 79 1009.1
20260507033001 63 319 2.0 8.0 0.00 0.07 0.07 79 1009.1
20260507032457 64 298 3.0 7.0 0.00 0.07 0.07 79 1009.3
20260507031954 64 289 3.0 11.0 0.00 0.07 0.07 78 1009.2
20260507031711 64 297 3.0 9.0 0.00 0.07 0.07 79 1009.3
20260507030950 64 292 2.0 7.0 0.00 0.07 0.07 81 1008.9
20260507030422 65 289 3.0 10.0 0.00 0.07 0.07 82 1008.7
20260507025919 65 309 2.0 10.0 0.00 0.07 0.07 82 1008.8
20260507025353 65 309 2.0 9.0 0.00 0.07 0.07 81 1008.8
20260507024844 65 292 3.0 11.0 0.00 0.07 0.07 80 1008.8
20260507024343 66 325 3.0 11.0 0.00 0.07 0.07 81 1009.1
20260507023834 66 305 1.0 6.0 0.00 0.07 0.07 82 1009.3
20260507023606 67 285 1.0 4.0 0.00 0.07 0.07 82 1009.2
20260507022807 67 294 0.0 3.0 0.00 0.07 0.07 81 1008.8
20260507022238 67 328 0.0 2.0 0.00 0.07 0.07 81 1008.8
20260507022001 67 332 0.0 2.0 0.00 0.07 0.07 81 1008.7
20260507021224 67 245 0.0 2.0 0.00 0.07 0.07 81 1008.7
20260507020740 67 108 0.0 2.0 0.00 0.07 0.07 81 1008.8
20260507020214 67 188 0.0 3.0 0.00 0.07 0.07 80 1008.8
20260507015713 67 292 0.0 3.0 0.00 0.07 0.07 80 1009.0
20260507015144 67 252 0.0 4.0 0.00 0.07 0.07 80 1009.1
20260507014643 67 242 0.0 4.0 0.00 0.07 0.07 80 1009.2
20260507014115 67 124 0.0 2.0 0.00 0.07 0.07 81 1009.1
20260507013613 67 225 0.0 1.0 0.00 0.07 0.07 81 1008.8
20260507013542 67 208 0.0 0.0 0.00 0.07 0.07 81 1008.9
20260507012543 67 210 0.0 0.0 0.00 0.07 0.07 80 1008.8
20260507012018 67 226 0.0 0.0 0.00 0.07 0.07 80 1008.8
20260507011712 67 198 0.0 1.0 0.00 0.07 0.07 80 1008.8
20260507011149 67 176 0.0 2.0 0.00 0.07 0.07 80 1008.8
20260507010421 67 207 0.0 2.0 0.00 0.07 0.07 80 1008.7
20260507005855 67 163 0.0 4.0 0.00 0.07 0.07 80 1008.9
20260507005327 67 305 1.0 4.0 0.00 0.07 0.07 79 1008.8
20260507005052 67 117 0.0 3.0 0.00 0.07 0.07 79 1008.9
20260507004325 67 195 0.0 2.0 0.00 0.07 0.07 79 1008.9
20260507003823 67 359 0.0 1.0 0.00 0.07 0.07 79 1008.9
20260507003300 67 359 0.0 1.0 0.00 0.07 0.07 79 1008.8
20260507002954 67 359 0.0 1.0 0.00 0.07 0.07 79 1008.7
20260507002435 67 359 0.0 1.0 0.00 0.07 0.07 78 1008.5
20260507001711 68 359 0.0 1.0 0.00 0.07 0.07 78 1008.4
20260507001208 68 359 0.0 1.0 0.00 0.07 0.07 77 1008.2
20260507000711 68 359 0.0 1.0 0.00 0.07 0.07 77 1008.2
20260507000150 68 359 0.0 2.0 0.00 0.07 0.07 76 1008.0
20260506235649 69 239 1.0 6.0 0.00 0.07 0.07 76 1008.1
20260506235150 69 245 1.0 6.0 0.00 0.07 0.07 76 1008.1
20260506234648 69 214 1.0 3.0 0.00 0.07 0.07 76 1008.0
20260506234149 69 314 0.0 3.0 0.00 0.07 0.07 76 1008.1
20260506233900 69 355 0.0 2.0 0.00 0.07 0.07 76 1008.2
20260506233401 69 354 0.0 2.0 0.00 0.07 0.07 75 1008.2
20260506232631 69 118 1.0 2.0 0.00 0.07 0.07 75 1008.1
20260506232104 69 204 1.0 5.0 0.00 0.07 0.07 75 1008.1
20260506231551 69 208 1.0 4.0 0.00 0.07 0.07 75 1007.8
20260506231518 69 192 1.0 2.0 0.00 0.07 0.07 74 1007.9
20260506230514 69 238 1.0 6.0 0.00 0.07 0.07 74 1007.9
20260506230013 69 245 1.0 6.0 0.00 0.07 0.07 74 1007.9
20260506225516 70 256 1.0 5.0 0.00 0.07 0.07 74 1008.1
20260506224955 70 198 2.0 6.0 0.00 0.07 0.07 74 1008.0
20260506224430 70 251 1.0 6.0 0.00 0.07 0.07 74 1008.1
20260506223909 70 190 1.0 6.0 0.00 0.07 0.07 74 1008.0
20260506223414 70 160 1.0 4.0 0.00 0.07 0.07 74 1008.1
20260506223410 70 206 1.0 4.0 0.00 0.07 0.07 74 1008.1
20260506222411 70 193 1.0 5.0 0.00 0.07 0.07 73 1008.0
20260506222112 70 224 1.0 5.0 0.00 0.07 0.07 73 1007.8
20260506221346 70 336 1.0 8.0 0.00 0.07 0.07 73 1007.6
20260506220857 70 212 2.0 8.0 0.00 0.07 0.07 72 1007.6
20260506220323 70 297 2.0 6.0 0.00 0.07 0.07 72 1007.9
20260506215758 71 316 2.0 6.0 0.00 0.07 0.07 71 1007.9
20260506215456 71 247 2.0 8.0 0.00 0.07 0.07 71 1007.9
20260506214703 70 226 2.0 8.0 0.00 0.07 0.07 72 1007.8
20260506214200 70 302 2.0 8.0 0.00 0.07 0.07 72 1007.8
20260506213635 70 188 2.0 10.0 0.00 0.07 0.07 71 1007.8
20260506213344 71 239 2.0 10.0 0.00 0.07 0.07 71 1007.8
20260506212541 71 234 1.0 9.0 0.00 0.07 0.07 70 1007.8
20260506212040 72 316 2.0 5.0 0.00 0.07 0.07 71 1007.7
20260506211742 72 220 2.0 6.0 0.00 0.07 0.07 71 1007.7
20260506211007 72 252 1.0 6.0 0.00 0.07 0.07 71 1007.6
20260506210731 71 252 2.0 8.0 0.00 0.07 0.07 73 1007.7
20260506210003 70 209 2.0 8.0 0.00 0.07 0.07 73 1007.7
20260506205439 70 236 2.0 7.0 0.00 0.07 0.07 73 1007.6
20260506204915 70 258 2.0 6.0 0.00 0.07 0.07 74 1007.6
20260506204415 69 206 2.0 8.0 0.00 0.07 0.07 74 1007.8
20260506203917 69 231 2.0 8.0 0.00 0.07 0.07 74 1007.6
20260506203415 69 250 2.0 9.0 0.00 0.07 0.07 74 1007.6
20260506203125 69 16 3.0 9.0 0.00 0.07 0.07 74 1007.6
20260506202346 69 342 3.0 9.0 0.00 0.07 0.07 74 1007.5
20260506201843 70 154 2.0 9.0 0.00 0.07 0.07 74 1007.4
20260506201544 69 349 2.0 7.0 0.00 0.07 0.07 75 1007.4
20260506200811 69 267 3.0 8.0 0.00 0.07 0.07 76 1007.5
20260506200309 68 101 2.0 8.0 0.00 0.07 0.07 76 1007.4
20260506200019 68 226 2.0 8.0 0.00 0.07 0.07 77 1007.5
20260506195235 67 236 2.0 8.0 0.00 0.07 0.07 78 1007.6
20260506194734 67 347 2.0 8.0 0.00 0.07 0.07 78 1007.8
20260506194206 67 233 2.0 8.0 0.00 0.07 0.07 78 1007.8
20260506193704 66 288 3.0 12.0 0.00 0.07 0.07 78 1007.9
20260506193136 66 354 3.0 10.0 0.00 0.07 0.07 78 1008.0
20260506192635 66 169 2.0 8.0 0.00 0.07 0.07 78 1008.0
20260506192106 66 75 2.0 7.0 0.00 0.07 0.07 78 1008.0
20260506191539 66 200 2.0 7.0 0.00 0.07 0.07 78 1008.2
20260506191034 66 308 2.0 9.0 0.00 0.07 0.07 78 1008.2
20260506190755 66 273 2.0 9.0 0.00 0.07 0.07 78 1008.2
20260506190004 66 173 2.0 8.0 0.00 0.07 0.07 79 1008.2
20260506185502 66 249 2.0 8.0 0.00 0.07 0.07 79 1008.3
20260506185155 66 237 3.0 9.0 0.00 0.07 0.07 79 1008.2
20260506184656 66 99 3.0 9.0 0.00 0.07 0.07 79 1008.2
20260506183908 65 203 3.0 9.0 0.00 0.07 0.07 79 1008.2
20260506183341 65 325 2.0 9.0 0.00 0.07 0.07 80 1008.4
20260506182813 65 232 2.0 14.0 0.00 0.07 0.07 80 1008.4
20260506182532 65 214 2.0 14.0 0.00 0.07 0.07 80 1008.4
20260506182008 65 291 2.0 5.0 0.00 0.07 0.07 81 1008.5
20260506181218 65 176 2.0 11.0 0.00 0.07 0.07 81 1008.6
20260506180705 65 193 3.0 11.0 0.00 0.07 0.07 81 1008.6
20260506180220 64 226 3.0 13.0 0.00 0.07 0.07 82 1008.6
20260506175640 64 340 2.0 13.0 0.00 0.07 0.07 82 1008.7
20260506175137 64 220 2.0 9.0 0.00 0.07 0.07 83 1008.6
20260506174625 64 227 2.0 9.0 0.00 0.07 0.07 83 1008.6
20260506174618 64 136 2.0 13.0 0.00 0.07 0.07 83 1008.7
20260506173600 64 205 3.0 13.0 0.00 0.07 0.07 82 1008.7
20260506173100 64 257 4.0 10.0 0.00 0.07 0.07 82 1008.8
20260506172530 64 232 3.0 10.0 0.00 0.07 0.07 82 1008.7
20260506172028 64 257 3.0 6.0 0.00 0.07 0.07 82 1008.8
20260506171459 64 197 3.0 10.0 0.01 0.07 0.07 82 1008.7
20260506170959 64 182 3.0 11.0 0.01 0.07 0.07 82 1008.8
20260506170431 64 200 3.0 11.0 0.02 0.07 0.07 83 1008.9
20260506165906 64 179 4.0 12.0 0.02 0.07 0.07 83 1009.0
20260506165341 64 229 4.0 12.0 0.02 0.07 0.07 83 1009.1
20260506164839 63 193 4.0 11.0 0.03 0.07 0.07 83 1009.2
20260506164341 63 202 3.0 11.0 0.03 0.07 0.07 83 1009.1
20260506163814 64 157 3.0 11.0 0.04 0.07 0.07 83 1009.2
20260506163314 64 228 4.0 11.0 0.05 0.07 0.07 82 1009.1
20260506162758 64 144 3.0 9.0 0.05 0.07 0.07 82 1009.2
20260506162256 64 194 2.0 9.0 0.05 0.07 0.07 83 1009.3
20260506161755 64 216 2.0 8.0 0.06 0.07 0.07 83 1009.2
20260506161249 64 176 2.0 8.0 0.05 0.06 0.06 83 1009.4
20260506160952 64 149 3.0 8.0 0.05 0.05 0.05 82 1009.5
20260506160236 64 241 2.0 8.0 0.05 0.05 0.05 82 1009.6
20260506155728 64 226 1.0 8.0 0.05 0.05 0.05 82 1009.9
20260506155159 64 266 1.0 8.0 0.05 0.05 0.05 81 1010.0
20260506154637 64 208 1.0 3.0 0.04 0.04 0.04 81 1010.1
20260506154138 64 258 1.0 8.0 0.03 0.03 0.03 80 1010.0
20260506153636 64 210 2.0 8.0 0.03 0.03 0.03 79 1010.0
20260506153138 65 201 2.0 12.0 0.02 0.02 0.02 78 1010.0
20260506152841 65 123 1.0 6.0 0.02 0.02 0.02 79 1010.0
20260506152113 65 233 1.0 7.0 0.02 0.02 0.02 78 1010.0